cubair logo

 

Steve KrogSteve Krog

Availability:

If it's not raining I'm flying!

About Steve:

Born and raised in southwestern Minnesota, Steve "migrated" to Wisconsin in 1982 and continues to reside in Hartford, Wisconsin. He has been interested in airplanes since he was old enough to know what they were, and family friend and mentor Carroll Bressler introduced him to the pleasure of aviation by giving him his first ride when he was 12 years old. Steve has been "hooked on aviation" ever since. He earned his private certificate in 1969 and completed his training in 1972, obtaining commercial and flight instructor certificates as well as instrument and multiengine ratings. Steve retired from and sold his marketing communications firm in early 2007 and established Cub Air Flight LLC, a primary flight school for sport and private pilot students who want to learn in a tailwheel airplane. He also provides tailwheel training for vintage aircraft owners. Steve and his wife, Sharon, who also flies, own several aircraft including a 1941 Piper J-5A Cruiser (currently being restored), a 1938, 1945, and a 1946 Piper J-3, a 1946 Piper PA-12 Super Cruiser, and a 1947 Luscombe 8E. Steve and Sharon have been AirVenture volunteers for well more than 12 years. They also own and manage the Cub Club, the Luscombe Association, and the Taylorcraft Owner's Club, three very active type clubs.

 

Find Us Here!

Hartford Municipal

Airport (KHXF)
4200 Highway U
Hartford, WI 53027

Our Staff

Steve Krog
Jamie Weber

West Bend Weather

[Source: ADDS]
METAR
KETB 210855Z AUTO 01007KT 10SM BKN007 OVC016 18/18 A2972 RMK AO2 P0001 =
TAF

Waukesha Weather

[Source: ADDS]
METAR
KUES 210855Z AUTO 35007KT 10SM SCT010 BKN021 OVC031 18/17 A2972 RMK AO2 =
TAF
KUES 210831Z 2109/2206 36007KT P6SM OVC010 FM211700 35013G21KT P6SM VCSH OVC010 FM212000 35012KT 6SM -SHRA BKN020 FM220100 36012G20KT P6SM OVC030 FM220300 35012KT P6SM OVC010 =

Juneau Weather

[Source: ADDS]
METAR
KUNU 210855Z AUTO 33007KT 7SM BKN007 OVC011 19/19 A2975 RMK AO2 T01920188 =
TAF

Fond Du Lac Weather

[Source: ADDS]
METAR
KFLD 210853Z AUTO 03015G23KT 10SM OVC013 21/18 A2975 RMK AO2 SLP071 T02110183 53006 =
TAF